• In Uzbekistan
  • List of Countries
  • For 7 days
  • Water Temperature
  • Satellite Maps
  • Weather Map
  • Weather Widgets
  • user-avatar
    Login

    Hourly Weather Kroscienko

    Today, 26 April, Friday

    Time Temperature Precipitation Wind Pressure Humidity
    00:00 +15°C° 0 mm 4 mps 726 mmHg 83%
    01:00 +14°C° 0 mm 4 mps 726 mmHg 84%
    02:00 +15°C° 0 mm 2 mps 725 mmHg 87%
    03:00 +13°C° 0 mm 3 mps 725 mmHg 88%
    04:00 +13°C° 0 mm 3 mps 725 mmHg 89%
    05:00 +13°C° 0 mm 3 mps 725 mmHg 91%
    06:00 +14°C° 0 mm 3 mps 725 mmHg 83%
    07:00 +17°C° 0 mm 4 mps 725 mmHg 75%
    08:00 +19°C° 0 mm 5 mps 725 mmHg 68%
    09:00 +20°C° 0 mm 5 mps 725 mmHg 60%
    10:00 +22°C° 0 mm 6 mps 725 mmHg 53%
    11:00 +23°C° 0 mm 7 mps 725 mmHg 46%
    12:00 +23°C° 0 mm 7 mps 724 mmHg 46%
    13:00 +24°C° 0 mm 7 mps 724 mmHg 47%
    14:00 +24°C° 0 mm 7 mps 724 mmHg 48%
    15:00 +24°C° 0 mm 6 mps 724 mmHg 51%
    16:00 +23°C° 0 mm 6 mps 724 mmHg 54%
    17:00 +23°C° 0 mm 6 mps 723 mmHg 58%
    18:00 +21°C° 0 mm 5 mps 723 mmHg 62%
    19:00 +20°C° 0 mm 5 mps 723 mmHg 67%
    20:00 +19°C° 0 mm 5 mps 723 mmHg 72%
    21:00 +19°C° 0 mm 5 mps 723 mmHg 70%
    22:00 +19°C° 0 mm 5 mps 723 mmHg 69%
    23:00 +19°C° 0 mm 5 mps 723 mmHg 68%

    Tomorrow, 27 April, Saturday

    Time Temperature Precipitation Wind Pressure Humidity
    00:00 +19°C° 0 mm 4 mps 723 mmHg 68%
    01:00 +18°C° 0 mm 4 mps 723 mmHg 68%
    02:00 +18°C° 0 mm 4 mps 722 mmHg 69%
    03:00 +18°C° 0 mm 4 mps 722 mmHg 69%
    04:00 +17°C° 0 mm 5 mps 722 mmHg 70%
    05:00 +17°C° 0 mm 5 mps 722 mmHg 71%
    06:00 +18°C° 0 mm 4 mps 722 mmHg 72%
    07:00 +18°C° 0 mm 3 mps 722 mmHg 73%
    08:00 +18°C° 0 mm 3 mps 722 mmHg 75%
    09:00 +18°C° 0.1 mm 3 mps 722 mmHg 74%
    10:00 +18°C° 0.1 mm 3 mps 722 mmHg 73%
    11:00 +19°C° 0.1 mm 3 mps 722 mmHg 72%
    12:00 +19°C° 0.3 mm 3 mps 722 mmHg 69%
    13:00 +20°C° 0.3 mm 3 mps 722 mmHg 65%
    14:00 +21°C° 0.3 mm 3 mps 722 mmHg 62%
    15:00 +20°C° 1.2 mm 3 mps 722 mmHg 68%
    16:00 +19°C° 1.2 mm 3 mps 722 mmHg 75%
    17:00 +18°C° 1.2 mm 3 mps 721 mmHg 81%
    18:00 +17°C° 1.5 mm 3 mps 721 mmHg 86%
    19:00 +14°C° 1.5 mm 3 mps 722 mmHg 91%
    20:00 +13°C° 1.5 mm 3 mps 722 mmHg 95%
    21:00 +12°C° 0.4 mm 3 mps 722 mmHg 95%
    22:00 +12°C° 0.4 mm 3 mps 722 mmHg 95%
    23:00 +12°C° 0.4 mm 2 mps 722 mmHg 96%

    Day after tomorrow, 28 April, Sunday

    Time Temperature Precipitation Wind Pressure Humidity
    00:00 +11°C° 0.9 mm 3 mps 722 mmHg 96%
    01:00 +11°C° 0.9 mm 3 mps 722 mmHg 96%
    02:00 +10°C° 0.9 mm 3 mps 722 mmHg 96%
    03:00 +10°C° 0.6 mm 3 mps 722 mmHg 96%
    04:00 +9°C° 0.6 mm 3 mps 722 mmHg 95%
    05:00 +9°C° 0.6 mm 3 mps 721 mmHg 95%
    06:00 +9°C° 0.7 mm 3 mps 722 mmHg 95%
    07:00 +9°C° 0.7 mm 3 mps 722 mmHg 95%
    08:00 +8°C° 0.7 mm 3 mps 722 mmHg 95%
    09:00 +7°C° 1.1 mm 4 mps 722 mmHg 95%
    10:00 +7°C° 1.1 mm 4 mps 722 mmHg 95%
    11:00 +7°C° 1.1 mm 4 mps 722 mmHg 95%
    12:00 +6°C° 1.1 mm 4 mps 722 mmHg 95%
    13:00 +6°C° 1.1 mm 5 mps 722 mmHg 95%
    14:00 +6°C° 1.1 mm 5 mps 722 mmHg 95%
    15:00 +7°C° 2 mm 5 mps 722 mmHg 96%
    16:00 +7°C° 2 mm 5 mps 722 mmHg 96%
    17:00 +7°C° 2 mm 5 mps 722 mmHg 96%
    18:00 +7°C° 2.1 mm 5 mps 723 mmHg 96%
    19:00 +7°C° 2.1 mm 5 mps 723 mmHg 97%
    20:00 +7°C° 2.1 mm 5 mps 723 mmHg 97%
    21:00 +7°C° 3.4 mm 4 mps 723 mmHg 97%
    22:00 +7°C° 3.4 mm 4 mps 723 mmHg 97%
    23:00 +8°C° 3.4 mm 3 mps 723 mmHg 97%

    29 April, Monday

    Time Temperature Precipitation Wind Pressure Humidity
    00:00 +8°C° 0.8 mm 3 mps 722 mmHg 97%
    01:00 +7°C° 0.8 mm 4 mps 722 mmHg 97%
    02:00 +7°C° 0.8 mm 4 mps 722 mmHg 97%
    03:00 +7°C° 0.2 mm 4 mps 722 mmHg 97%
    04:00 +8°C° 0.2 mm 3 mps 722 mmHg 97%
    05:00 +8°C° 0.2 mm 3 mps 722 mmHg 97%
    06:00 +8°C° 0.3 mm 3 mps 722 mmHg 97%
    07:00 +7°C° 0.3 mm 4 mps 721 mmHg 97%
    08:00 +7°C° 0.3 mm 4 mps 721 mmHg 97%
    09:00 +7°C° 0.3 mm 4 mps 721 mmHg 97%
    10:00 +7°C° 0.3 mm 4 mps 721 mmHg 97%
    11:00 +7°C° 0.3 mm 4 mps 721 mmHg 97%
    12:00 +8°C° 1.2 mm 3 mps 721 mmHg 97%
    13:00 +8°C° 1.2 mm 3 mps 721 mmHg 97%
    14:00 +8°C° 1.2 mm 3 mps 721 mmHg 97%
    15:00 +8°C° 2.1 mm 3 mps 721 mmHg 97%
    16:00 +8°C° 2.1 mm 3 mps 721 mmHg 97%
    17:00 +8°C° 2.1 mm 3 mps 720 mmHg 97%
    18:00 +8°C° 2.7 mm 3 mps 720 mmHg 97%
    19:00 +8°C° 2.7 mm 3 mps 720 mmHg 97%
    20:00 +8°C° 2.7 mm 3 mps 720 mmHg 98%
    21:00 +8°C° 2.2 mm 2 mps 720 mmHg 98%
    22:00 +8°C° 2.2 mm 2 mps 720 mmHg 98%
    23:00 +9°C° 2.2 mm 1 mps 720 mmHg 98%

    30 April, Tuesday

    Time Temperature Precipitation Wind Pressure Humidity
    00:00 +8°C° 0.3 mm 2 mps 720 mmHg 98%
    01:00 +8°C° 0.3 mm 2 mps 720 mmHg 98%
    02:00 +8°C° 0.3 mm 3 mps 720 mmHg 98%
    03:00 +8°C° 0.2 mm 3 mps 720 mmHg 98%
    04:00 +8°C° 0.2 mm 3 mps 720 mmHg 98%
    05:00 +8°C° 0.2 mm 3 mps 720 mmHg 98%
    06:00 +8°C° 0.1 mm 3 mps 720 mmHg 98%
    07:00 +7°C° 0.1 mm 3 mps 720 mmHg 97%
    08:00 +7°C° 0.1 mm 3 mps 721 mmHg 97%
    09:00 +7°C° 0.1 mm 3 mps 721 mmHg 97%
    10:00 +8°C° 0.1 mm 3 mps 721 mmHg 96%
    11:00 +8°C° 0.1 mm 3 mps 721 mmHg 96%
    12:00 +8°C° 0.1 mm 3 mps 721 mmHg 95%
    13:00 +8°C° 0.1 mm 3 mps 721 mmHg 94%
    14:00 +8°C° 0.1 mm 3 mps 721 mmHg 94%
    15:00 +8°C° 0.1 mm 2 mps 721 mmHg 93%
    16:00 +8°C° 0.1 mm 2 mps 721 mmHg 92%
    17:00 +8°C° 0.1 mm 2 mps 721 mmHg 91%
    18:00 +8°C° 0.1 mm 2 mps 721 mmHg 92%
    19:00 +7°C° 0.1 mm 2 mps 721 mmHg 92%
    20:00 +8°C° 0.1 mm 1 mps 721 mmHg 93%
    21:00 +7°C° 0 mm 1 mps 721 mmHg 93%
    22:00 +6°C° 0 mm 1 mps 721 mmHg 92%
    23:00 +6°C° 0 mm 1 mps 721 mmHg 92%

    1 May, Wednesday

    Time Temperature Precipitation Wind Pressure Humidity
    00:00 +6°C° 0 mm 1 mps 721 mmHg 92%
    01:00 +5°C° 0 mm 1 mps 721 mmHg 92%
    02:00 +5°C° 0 mm 1 mps 721 mmHg 93%
    03:00 +5°C° 0 mm 1 mps 721 mmHg 93%
    04:00 +4°C° 0 mm 1 mps 721 mmHg 93%
    05:00 +4°C° 0 mm 1 mps 721 mmHg 94%
    06:00 +5°C° 0 mm 1 mps 721 mmHg 91%
    07:00 +7°C° 0 mm 1 mps 721 mmHg 88%
    08:00 +8°C° 0 mm 1 mps 721 mmHg 85%
    09:00 +8°C° 0.1 mm 2 mps 721 mmHg 76%
    10:00 +10°C° 0.1 mm 2 mps 721 mmHg 66%
    11:00 +11°C° 0.1 mm 3 mps 721 mmHg 57%
    12:00 +12°C° 0.1 mm 3 mps 721 mmHg 56%
    13:00 +12°C° 0.1 mm 3 mps 721 mmHg 55%
    14:00 +12°C° 0.1 mm 3 mps 721 mmHg 54%
    15:00 +12°C° 0.2 mm 3 mps 721 mmHg 57%
    16:00 +12°C° 0.2 mm 3 mps 720 mmHg 59%
    17:00 +12°C° 0.2 mm 3 mps 720 mmHg 62%
    18:00 +10°C° 0.1 mm 3 mps 720 mmHg 69%
    19:00 +9°C° 0.1 mm 2 mps 720 mmHg 76%
    20:00 +8°C° 0.1 mm 1 mps 720 mmHg 83%
    21:00 +7°C° 0 mm 1 mps 720 mmHg 85%
    22:00 +6°C° 0 mm 1 mps 721 mmHg 88%
    23:00 +4°C° 0 mm 0 mps 721 mmHg 90%
    Show more